Powrót do katalogu

STARLINK-30338

AktywnyŁącznośćVLEO
NORAD 57718·PAYLOAD·🇺🇸 United States

Wystrzelony Aug 27, 2023 z Cape Canaveral Space Force Station

Loading…

Następne Przeloty (najbliższe 24 godziny)

TLE

ŚwieżeSource: CelesTrak SupGP

Epoka: Sep 14, 2026, 20:34 UTC

1 57718C 23129W   26257.85743056 -.00009478  00000+0 -34345-3 0  2573
2 57718  42.9994 129.8675 0001118 272.7618 317.7192 15.27568795    15

Śledź STARLINK-30338 w czasie rzeczywistym z AllMySat

Download on the App Store